Regional Weather Roundup
Issued by NWS

Home | Current Version | Previous Version | Graphics & Text | Print | Product List | Glossary Off
Versions: 1 2 3 4 5 6 7 8 9 10 11 12 13 14 15 16 17 18 19 20 21 22 23 24 25 26 27 28 29 30 31 32 33 34 35 36 37 38 39 40 41 42 43 44 45 46 47 48 49 50

000
ASUS43 KMKX 210400
RWRWI

WISCONSIN REGIONAL WEATHER ROUNDUP
NATIONAL WEATHER SERVICE MILWAUKEE/SULLIVAN WI
1000 PM CST MON FEB 20 2017

NOTE: "FAIR" INDICATES FEW OR NO CLOUDS BELOW 12,000 FEET WITH NO
SIGNIFICANT WEATHER AND/OR OBSTRUCTIONS TO VISIBILITY.

WIZ001-002-006>008-014>016-023>028-210500-
NORTHWEST WISCONSIN

CITY           SKY/WX    TMP DP  RH WIND       PRES   REMARKS
SUPERIOR ARPT  RAIN      37  37 100 CALM      29.62R
ASHLAND        CLOUDY    50  48  93 S10       29.62F
HAYWARD        CLOUDY    50  48  93 S8        29.65F
SIREN          DRIZZLE   51  51  97 SW9       29.65S
CUMBERLAND     FOG       48  46  93 SW12      29.67S VSB 1
RICE LAKE      CLOUDY    50  49  97 S10       29.69F FOG
CHETEK         CLOUDY    51  51 100 S7        29.69F
LADYSMITH      LGT RAIN  50  49  97 S6        29.71S VSB 1
EAU CLAIRE     NOT AVBL
MENOMONIE      CLOUDY    53  53 100 S12G17    29.71S
NEW RICHMOND   CLOUDY    51  51 100 SW13      29.70R FOG
OSCEOLA        CLOUDY    52  52 100 W20       29.72R FOG
$$

WIZ003>005-009-010-017-018-210500-
NORTH CENTRAL WISCONSIN

CITY           SKY/WX    TMP DP  RH WIND       PRES   REMARKS
MANITOWISH WTR RAIN      44  44 100 S10       29.70F
ARBOR VITAE    RAIN      47  46  96 S8        29.72F
WOODRUFF       RAIN      47  46  96 S8        29.72F
RHINELANDER    LGT RAIN  48  48 100 S9        29.75F FOG
EAGLE RIVER    LGT RAIN  46  46 100 S8        29.74F
LAND O LAKES   LGT RAIN  46  46  99 S9        29.74F
PHILLIPS       CLOUDY    48  48 100 S10       29.68F
TOMAHAWK       RAIN      45  44  97 CALM      29.76F VSB 1/2
MEDFORD        FOG       47  47  99 SE9       29.72F VSB<1/4
MERRILL        NOT AVBL
$$

WIZ029-030-035-036-043>047-210500-
CENTRAL WISCONSIN

CITY           SKY/WX    TMP DP  RH WIND       PRES   REMARKS
WAUSAU         LGT RAIN  47  47 100 S8        29.76F VSB 1/4
MOSINEE        RAIN      46  46 100 S7        29.79F VSB 1/4
MARSHFIELD     FOG       49  48  97 S9        29.74F VSB 1/4
STEVENS POINT  LGT RAIN  49  49 100 S8        29.81S
WAUPACA        LGT RAIN  51  49  94 S6        29.82F
WAUTOMA        LGT RAIN  52  51  97 S6        29.83F FOG
WISC RAPIDS    LGT RAIN  54  54 100 SW8       29.80F FOG
CAMP DOUGLAS   CLOUDY    55  55 100 S8        29.79F
$$

WIZ011>013-019>022-031-037>040-048>050-210500-
NORTHEAST WISCONSIN

CITY           SKY/WX    TMP DP  RH WIND       PRES   REMARKS
ANTIGO         RAIN      42  42 100 SW9       29.81R VSB 1
SHAWANO        RAIN      49  47  90 CALM      29.83R
OCONTO         CLOUDY    44  40  86 S12G17    29.83F
STURGEON BAY   LGT RAIN  46  40  79 S22G33    29.84F
GREEN BAY      RAIN      52  46  80 S16G25    29.82F
MANITOWOC      NOT AVBL
APPLETON       DRIZZLE   48  43  81 S14       29.82S
CLINTONVILLE   RAIN      46  45  93 SW6       29.83R
OSHKOSH        LGT RAIN  52  46  80 SW12      29.84R
$$

WIZ032>034-041-042-053>061-210500-
SOUTHWEST WISCONSIN

CITY           SKY/WX    TMP DP  RH WIND       PRES   REMARKS
LA CROSSE      CLOUDY    56  54  93 S9        29.78R
SPARTA         CLOUDY    55  55  99 SW7       29.78F
VIROQUA        CLOUDY    55  55 100 S15       29.81S
BOSCOBEL       LGT RAIN  59  56  89 SW8       29.84S
PRAIRIE DU CHI LGT RAIN  55  55  97 S7        29.83S
PLATTEVILLE    CLOUDY    55  55 100 SW6       29.88S
$$

WIZ056-057-062-063-064-067-068-210500-
SOUTH CENTRAL WISCONSIN

CITY           SKY/WX    TMP DP  RH WIND       PRES   REMARKS
REEDSBURG      CLOUDY    55  55 100 S13       29.83F
BARABOO/DELLS  LGT RAIN  55  54  94 S10       29.84S
LONE ROCK      NOT AVBL
MINERAL POINT  LGT RAIN  55  55 100 SW9       29.88R
MADISON        RAIN      55  53  93 W8        29.88R FOG
MIDDLETON        N/A     58  57  99 SW8       29.87S
WATERTOWN      LGT RAIN  56  51  85 S9G16     29.86S
MONROE         LGT RAIN  55  54  94 SW12      29.88S
JANESVILLE     CLOUDY    61  50  67 SW13      29.89R
$$

WIZ051-052-058>065-066-070>072-210500-
SOUTHEAST WISCONSIN

CITY           SKY/WX    TMP DP  RH WIND       PRES   REMARKS
MILWAUKEE      CLOUDY    57  42  57 S15       29.89F
WAUKESHA       CLOUDY    54  43  66 SE10      29.89F
MILWAUKEE/TIMM CLOUDY    57  39  51 S10       29.89F
RACINE         CLOUDY    49  39  68 S15G24    29.91F
KENOSHA        CLOUDY    56  43  61 S12       29.89F
FOND DU LAC    LGT RAIN  55  46  71 S15       29.84R
SHEBOYGAN      LGT RAIN  48  40  73 S16G23    29.87F
WEST BEND      CLOUDY    55  45  67 S8G16     29.87F
JUNEAU         LGT RAIN  53  48  83 S9        29.87S
$$

LSZ147-162-210500-
LAKE SUPERIOR

STATION/POSITION TIME  TEMP    WIND        PRES    WAVE
                       AIR SEA DIR/SP/G            HT/PER
                 (UTC) (F)     (DEG/KT/KT) (MB)    (FT/S)
DEVILS ISLAND    0300   48     180/  5/  8 1002.7F
PORT WING        0340   35     360/  2/  3 1003.0R
SAXON HARBOR     0340   51     190/  5/ 11 1003.0F
$$

LMZ867-665-643>646-210500-
LAKE MICHIGAN

STATION/POSITION TIME  TEMP    WIND        PRES    WAVE
                       AIR SEA DIR/SP/G            HT/PER
                 (UTC) (F)     (DEG/KT/KT) (MB)    (FT/S)
CHAMBERS ISLAND  0340   47     130/ 13/ 24 1009.8F
NORTHPORT PIER   0340   43     150/ 15/ 21 1010.8F
SISTER BAY       0335   46     180/ 20/ 25   N/A
KEWAUNEE LAKESHO 0330   43     190/ 14/ 17 1011.5F
SHEBOYGAN LAKESH 0300   41     180/ 14/ 14 1012.6F
PORT WASHINGTON  0330   42     190/  4/  8 1013.5F
MILWAUKEE LAKESH 0330   43     160/ 15/ 16   N/A
KENOSHA   LAKESH 0300   41     170/ 16/ 20 1013.2
$$

TC  - TEMPERATURE IN CELSIUS
VSB - VISIBILITY IN STATUTE MILES
WCI - WIND CHILL INDEX
HX  - HEAT INDEX





USA.gov is the U.S. government's official web portal to all federal, state and local government web resources and services.